Location: Peebles
(55.6412°N, 3.1714°W)
Time: 11:01:19
(UTC+01:00)

IRIDIUM 33 DEB - Pass Details

Date: 28 June 2022
Orbit: 580 x 634 km, 86.4° (Epoch: 16 August)

Event Time Altitude Azimuth Distance (km) Brightness Sun altitude
Rises 03:29:28 0° 354° (N) 2,821 ? -6.1°
Reaches altitude 10° 03:31:39 10° 355° (N) 1,913 ? -6.0°
Maximum altitude 03:35:52 88° 79° (E) 590 ? -5.6°
Drops below altitude 10° 03:40:03 10° 176° (S) 1,901 ? -5.3°
Enters shadow 03:42:07 - 176° (S) 2,759 ? -5.2°
